CZ-4C DEB

Satellite information

Favourite Embed

Satellite Type and Status

DEBRISIN ORBIT

Key statistics

Satellite CZ-4C DEB at a glance.

Uptime

3575

Days in orbit

Revolutions

≈ 14.7

Per day

Orbit

SSO

Sun Synchronous Orbit

Inclination

97.8

Latest

Satellite identification and parameters

Extended collection of information and parameters for CZ-4C DEB.

Object identification

Identified? True

Debris? True

Object name: CZ-4C DEB

International designator: 2015-069D

Object number (NORAD): 42671

Object ID (CCSDS): 42671

Country: PEOPLES REPUBLIC OF CHINA (PRC)

Current information (Y/N): Y

RCS size: SMALL

Orbital parameters

Period: 97.716 minutes

Inclination: 97.8198 deg

SMA: 7027.55 km

Apoapsis: 732.864 km

Periapsis: 565.967 km

RAAN: 116.2804 deg

Eccentricy: 0.01187443

Argument of periapsis: 205.3947 deg

Mean anomaly: 154.1398 deg

Mean motion: 14.7365835 rev/day

Mean motion (dot): 0.00006889 rev/day2

B* drag term: 0.00095058874 1/REarth

Two-line elements (TLE)

Creation date: Sept. 8, 2025, 3:16 a.m.

Reference frame: TEME

Reference center: EARTH

Epoch: Sept. 7, 2025, 8:59 a.m. UTC

TLE line 0: 0 CZ-4C DEB

TLE line 1: 1 42671U 15069D 25250.37493660 .00006889 00000-0 95059-3 0 9995

TLE line 2: 2 42671 97.8198 116.2804 0118744 205.3947 154.1398 14.73658350514789

Live tracking on map

Real-time ground track for satellite CZ-4C DEB.

In-orbit conjunctions

A list of the most updated potential collisions computed for object CZ-4C DEB.

Target Orbit TCA Probability of collision Miss distance Type
FENGYUN 1C DEB SSO 2025-09-11 01:47:41 0.0001531498 458.0 (m) DEBRIS

Associated space launch

CZ-4C DEB was lifted into orbit during the mission ‘Long March 4C | Yaogan-29’, on board a Long March 4C space rocket.

The launch took place on Nov. 26, 2015, 9:24 p.m. from Launch Complex 9.

For more information about the launch, click the button.

Launch to space Long March 4C | Yaogan-29
Long March 4C | Yaogan-29

Agency: N/A

Status: Launch Successful

Launch date: Nov. 26, 2015, 9:24 p.m. UTC

Rocket: Long March 4C

Launch pad: Launch Complex 9

Location: Taiyuan Satellite Launch Center, People's Republic of China

...

Latest news about this satellite

There are no fresh news available about this satellite. Check back as we update our databases every day.


Newsletter sign-up

Weekly statistics, charts and insights to help you stay on top of the space industry.